User: anonymous   Login
Location: Unspecified
(0.0000°N, 0.0000°E)
Time: 09:34:08
(UTC+00:00)
Language:

LEMUR 2 ANUBHAVTHAKUR - Orbit

View from above orbital plane
View from above orbital plane
View from above satellite
View from above satellite

Ground track
Ground track

The orbit is defined by the following mean orbital elements,

1 41873U 16062E   24200.55473233  .14265010  12672-4  19722-3 0  9993
2 41873  51.6369 255.9023 0003857 291.3520  68.7099 16.48908038427151
Epoch (UTC): 18 July 2024 13:18:48
Eccentricity: 0.0003857
inclination: 51.6369°
perigee height: 140 km
apogee height: 145 km
right ascension of ascending node: 255.9023°
argument of perigee: 291.3520°
revolutions per day: 16.48908038
mean anomaly at epoch: 68.7099°

The dashed part of the orbit path shows where the satellite is in the earth's shadow,  

DLR